Regional Weather Roundup
Issued by NWS

Home | Current Version | Previous Version | Text Only | Print | Product List | Glossary On
Versions: 1 2 3 4 5 6 7 8 9 10 11 12 13 14 15 16 17 18 19 20 21 22 23 24 25 26 27 28 29 30 31 32 33 34 35 36 37 38 39 40 41 42 43 44 45 46 47 48 49 50
926
ASCA44 KEWX 130520
RWRMX

LATIN AMERICA AND CARIBBEAN REGIONAL WEATHER ROUNDUP
NATIONAL WEATHER SERVICE AUSTIN/SAN ANTONIO TX
1100 PM CST FRI FEB 12 2016

NOTE: "FAIR" INDICATED FEW OR NO CLOUDS BELOW 12,000 FEET WITH NO
SIGNIFICANT WEATHER AND/OR OBSTRUCTIONS TO VISIBILITY.

BAJA CALIFORNIA

CITY           SKY/WX    TMP DP  RH WIND       PRES   REMARKS
LA PAZ         CLEAR     66  54  63 CALM      30.02R
MEXICALI       CLEAR     64  30  27 CALM      30.04R
S.J. DEL CABO  PTCLDY    70  39  32 W8        29.98S
TIJUANA        CLEAR     59  48  67 CALM      30.10R

NORTHWESTERN MEXICO

CITY           SKY/WX    TMP DP  RH WIND       PRES   REMARKS
CULIACAN       CLEAR     68  66  94 CALM      29.96R
HERMOSILLO     CLEAR     66  36  32 CALM      30.00R
CD. JUAREZ       N/A    N/A N/A N/A MISG        N/A
LOS MOCHIS       N/A    N/A N/A N/A MISG        N/A

NORTHEASTERN MEXICO

CITY           SKY/WX    TMP DP  RH WIND       PRES   REMARKS
CHIHUAHUA      CLEAR     45   3  18 CALM      30.31R
MONTERREY      CLEAR     64  48  55 E8        30.22R

WESTERN MEXICO

CITY           SKY/WX    TMP DP  RH WIND       PRES   REMARKS
AGUASCALIENTES CLEAR     57  18  21 NE16      30.35R
DEL BAJIO      CLEAR     57  14  18 NE9G21    30.38R
GUADALAJARA    CLEAR     54  25  32 SE3       30.22R
MAZATLAN       PTCLDY    64  63  94 CALM      29.92R
P. VALLARTA    MOCLDY    73  70  88 CALM      29.93S
ZACATECAS      PTCLDY    54  18  24 SE23      30.37R

CENTRAL MEXICO

CITY           SKY/WX    TMP DP  RH WIND       PRES   REMARKS
MEXICO CITY    CLEAR     54  32  43 NW7       30.42R
QUERETARO      CLEAR     46  30  53 SE10      30.42R WCI  41
S. LUIS POTOSI CLEAR     48  27  43 SE5       30.40R WCI  46
TAMPICO        CLEAR     68  59  73 SE9       30.25R
TOLUCA         CLEAR     48  30  49 CALM      30.44

SOUTHERN MEXICO

CITY           SKY/WX    TMP DP  RH WIND       PRES   REMARKS
ACAPULCO       CLEAR     73  70  88 CALM      29.93R
VERACRUZ       PTCLDY    63  59  88 NW6       30.25S

YUCATAN PENINSULA

CITY           SKY/WX    TMP DP  RH WIND       PRES   REMARKS
CAMPECHE       CLEAR     66  57  72 N8        30.17S
CANCUN         PTCLDY    61  59  94 NW7       30.18F
CHETUMAL       MOCLDY    70  64  83 CALM      30.17S
COZUMEL        PTCLDY    66  59  77 NE5       30.19R
MERIDA         CLEAR     68  59  73 N9        30.21S
TAPACHULA      CLEAR     77  73  88 CALM      29.95S
TUX. GUTIERREZ CLEAR     61  55  82 CALM      30.15R
VILLAHERMOSA   MOCLDY    72  66  83 NE12      30.21R

CENTRAL AMERICA

CITY           SKY/WX    TMP DP  RH WIND       PRES   REMARKS
MANAGUA        PTCLDY    79  68  69 E12       29.92S

CARIBBEAN

CITY           SKY/WX    TMP DP  RH WIND       PRES   REMARKS
ARUBA          PTCLDY    79  72  78 E23       29.92S
CURACAO        PTCLDY    79  73  83 SE15      29.94S
KINGSTON       MOCLDY    77  70  78 N14       30.00S
NASSAU           N/A     59  54  82 CALM      30.20F
SAN JUAN       CLEAR     75  70  83 CALM      30.05F
SANTO DOMINGO  PTCLDY    73  68  83 CALM      30.03S
ST. CROIX      PTCLDY    75  68  78 NE5       30.05F
ST. MAARTEN    PTCLDY    79  68  69 SE9       30.03F
ST. THOMAS     CLEAR     75  68  78 E8        30.05F

$$





USA.gov is the U.S. government's official web portal to all federal, state and local government web resources and services.